Location: DaVinci Observatory
(43.1080°N, 78.6453°W)
Time: 16:47:18
(UTC-04:00)

Envisat - Pass Details

Date: 12 October 2017
Orbit: 764 x 766 km, 98.2° (Epoch: 17 October)

Event Time Altitude Azimuth Distance (km) Brightness Sun altitude
Exits shadow 19:53:45 22° 79° (E) 1,623 4.1 -14.9°
Maximum altitude 19:54:36 23° 64° (ENE) 1,581 4.1 -15.1°
Drops below altitude 10° 19:58:33 10° 13° (NNE) 2,311 5.4 -15.8°
Sets 20:01:15 0° 360° (N) 3,241 6.3 -16.3°
